Location: Unspecified
(0.0000°N, 0.0000°E)
Time: 03:22:54
(UTC+00:00)

Vanguard 3 - All Passes

Search period start: 18 December 2017 00:00
Search period end: 28 December 2017 00:00
Orbit: 509 x 3263 km, 33.3° (Epoch: 16 December)

Date Brightness Start Highest point End Pass type
(mag) Time Alt. Az. Time Alt. Az. Time Alt. Az.
18 Dec - 01:30:55 10° SSW 01:42:35 18° S 01:54:27 10° SE visible
18 Dec - 03:47:45 10° SSW 04:04:27 33° SSE 04:17:21 10° E visible
18 Dec - 06:04:19 10° SW 06:22:14 72° SE 06:32:43 10° ENE daylight
18 Dec - 08:23:59 10° WSW 08:35:58 37° NW 08:43:11 10° NNE daylight
18 Dec - 17:28:32 10° NNW 17:33:06 32° NE 17:40:13 10° ESE daylight
18 Dec - 19:38:45 10° WNW 19:45:27 52° SSW 19:57:28 10° SE visible
18 Dec - 21:53:48 10° WSW 22:02:00 22° SSW 22:13:30 10° SSE visible
19 Dec - 00:13:43 10° SSW 00:23:10 16° S 00:33:51 10° SE visible
19 Dec - 02:31:20 10° SSW 02:46:07 25° SSE 02:59:29 10° ESE visible
19 Dec - 04:47:14 10° SW 05:05:48 51° SSE 05:18:15 10° ENE visible
19 Dec - 07:05:07 10° WSW 07:21:29 66° NW 07:30:45 10° NE daylight
19 Dec - 09:29:00 10° WNW 09:34:15 15° NW 09:38:22 10° N daylight
19 Dec - 16:18:56 10° NNE 16:19:50 10° NE 16:20:46 10° NE daylight
19 Dec - 18:25:32 10° NW 18:31:02 89° SSW 18:40:59 10° SE visible
19 Dec - 20:38:20 10° WSW 20:45:30 28° SSW 20:56:41 10° SSE visible
19 Dec - 22:56:30 10° SW 23:04:22 16° S 23:14:02 10° SSE visible
20 Dec - 01:15:08 10° SSW 01:27:04 19° SSE 01:39:29 10° SE visible
20 Dec - 03:30:43 10° SW 03:48:24 38° SSE 04:02:23 10° E visible
20 Dec - 05:47:13 10° SW 06:06:03 83° SE 06:17:24 10° ENE daylight
20 Dec - 08:07:45 10° W 08:19:58 33° NW 08:27:38 10° NNE daylight
20 Dec - 17:13:09 10° NNW 17:17:30 40° NE 17:24:23 10° ESE daylight
20 Dec - 19:23:58 10° W 19:30:03 40° SSW 19:40:26 10° SE visible
20 Dec - 21:39:47 10° SW 21:46:42 18° SSW 21:55:56 10° SSE visible
20 Dec - 23:58:58 10° SSW 00:07:51 16° S 00:17:57 10° SE visible
21 Dec - 02:14:44 10° SSW 02:30:13 28° SSE 02:44:37 10° ESE visible
21 Dec - 04:30:07 10° SW 04:49:34 59° SSE 05:02:59 10° ENE visible
21 Dec - 06:48:23 10° WSW 07:05:16 58° NW 07:15:16 10° NE daylight
21 Dec - 09:13:52 10° WNW 09:18:35 13° NW 09:22:27 10° NNW daylight
21 Dec - 16:02:17 10° NNE 16:04:20 13° NE 16:06:41 10° ENE daylight
21 Dec - 18:10:31 10° WNW 18:15:35 68° SSW 18:24:28 10° SE visible
21 Dec - 20:24:04 10° WSW 20:30:13 22° SSW 20:39:13 10° SSE visible
21 Dec - 22:42:40 10° SSW 22:49:09 14° S 22:56:54 10° SSE visible
22 Dec - 00:59:12 10° SSW 01:11:27 21° SSE 01:24:29 10° ESE visible
22 Dec - 03:13:47 10° SW 03:32:11 43° SSE 03:47:13 10° E visible
22 Dec - 05:30:13 10° SW 05:49:41 88° NW 06:01:55 10° NE visible
22 Dec - 07:51:36 10° W 08:03:57 29° NW 08:12:01 10° NNE daylight
22 Dec - 16:57:50 10° NW 17:02:01 51° NE 17:08:32 10° ESE daylight
22 Dec - 19:09:23 10° W 19:14:46 30° SSW 19:23:21 10° SSE visible
22 Dec - 21:26:13 10° SW 21:31:32 14° S 21:38:09 10° SSE visible
22 Dec - 23:44:02 10° SSW 23:52:31 15° SSE 00:02:15 10° SE visible
23 Dec - 01:58:10 10° SSW 02:14:09 31° SSE 02:29:32 10° E visible
23 Dec - 04:13:07 10° SW 04:33:08 67° SE 04:47:33 10° ENE visible
23 Dec - 06:31:43 10° WSW 06:48:57 52° NW 06:59:40 10° NE daylight
23 Dec - 08:58:53 10° WNW 09:02:58 12° NW 09:06:26 10° NNW daylight
23 Dec - 15:46:16 10° N 15:48:51 17° NE 15:51:58 10° E daylight
23 Dec - 17:55:37 10° WNW 18:00:15 49° SSW 18:07:57 10° SE daylight
23 Dec - 20:10:11 10° SW 20:15:03 16° SSW 20:21:33 10° SSE visible
23 Dec - 22:29:02 10° SSW 22:34:00 12° S 22:39:44 10° SSE visible
24 Dec - 00:43:11 10° SSW 00:55:42 22° SSE 01:09:25 10° ESE visible
24 Dec - 02:56:58 10° SW 03:15:48 49° SSE 03:31:50 10° ENE visible
24 Dec - 05:13:21 10° WSW 05:33:12 79° NW 05:46:19 10° NE visible
24 Dec - 07:35:34 10° W 07:47:55 27° NW 07:56:20 10° NNE daylight
24 Dec - 16:42:36 10° NW 16:46:36 72° NE 16:52:38 10° ESE daylight
24 Dec - 18:55:03 10° WSW 18:59:36 22° SSW 19:06:12 10° SSE visible
24 Dec - 21:13:35 10° SSW 21:16:26 11° S 21:19:38 10° SSE visible
24 Dec - 23:28:51 10° SSW 23:37:07 16° SSE 23:46:45 10° SE visible
25 Dec - 01:41:39 10° SSW 01:57:56 35° SSE 02:14:15 10° E visible
25 Dec - 03:56:15 10° SW 04:16:32 75° SE 04:31:55 10° ENE visible
25 Dec - 06:15:11 10° WSW 06:32:34 46° NW 06:43:57 10° NNE daylight
25 Dec - 08:44:06 10° NW 08:47:24 11° NW 08:50:19 10° NNW daylight
25 Dec - 15:30:28 10° NNW 15:33:27 22° NE 15:36:59 10° E daylight
25 Dec - 17:40:52 10° W 17:45:02 34° SSW 17:51:24 10° SE daylight
25 Dec - 19:57:09 10° SSW 19:59:58 12° S 20:03:18 10° S visible
25 Dec - 22:15:40 10° S 22:18:53 11° S 22:22:25 10° SSE visible
26 Dec - 00:27:07 10° SSW 00:39:50 24° SSE 00:54:13 10° ESE visible
26 Dec - 02:40:16 10° SW 02:59:13 55° SE 03:16:14 10° ENE visible
26 Dec - 04:56:37 10° WSW 05:16:33 71° NW 05:30:33 10° NE visible
26 Dec - 07:19:39 10° W 07:31:54 24° NW 07:40:35 10° NNE daylight
26 Dec - 16:27:27 10° WNW 16:31:17 79° SW 16:36:45 10° SE daylight
26 Dec - 18:41:11 10° SW 18:44:31 15° SSW 18:48:47 10° SSE visible
26 Dec - 23:13:28 10° SSW 23:21:40 16° SSE 23:31:23 10° SE visible
27 Dec - 01:25:13 10° SSW 01:41:33 39° SSE 01:58:45 10° E visible
27 Dec - 03:39:32 10° SW 03:59:47 84° SE 04:16:08 10° ENE visible
27 Dec - 05:58:48 10° WSW 06:16:09 42° NW 06:28:10 10° NNE daylight
27 Dec - 08:29:30 10° NW 08:31:54 11° NNW 08:34:06 10° NNW daylight
27 Dec - 15:14:47 10° NNW 15:18:06 31° NE 15:21:53 10° E daylight
27 Dec - 17:26:20 10° W 17:29:53 23° SSW 17:34:46 10° SSE daylight
